Time,TemperatureF,DewpointF,PressureIn,WindDirection,WindDirectionDegrees,WindSpeedMPH,WindSpeedGustMPH,Humidity,HourlyPrecipIn,Conditions,Clouds,dailyrainin,SoftwareType,DateUTC
2013-04-30 21:42:00,51.4,38.0,30.12,ENE,68,3.8,3.8,60,0.00,,---,0.00,VWS V14.01,2013-05-01 01:42:00,
2013-04-30 21:48:00,51.4,37.6,30.09,ENE,68,0.9,1.1,59,0.00,,---,0.00,VWS V14.01,2013-05-01 01:48:00,
2013-04-30 21:53:00,51.4,37.6,30.09,SSW,202,1.1,1.1,59,0.00,,---,0.00,VWS V14.01,2013-05-01 01:53:00,
2013-04-30 21:58:00,51.3,37.9,30.09,SSW,202,0.0,0.0,60,0.00,,---,0.00,VWS V14.01,2013-05-01 01:58:00,
2013-04-30 22:03:00,51.3,37.4,30.09,WSW,248,0.0,1.3,59,0.00,,---,0.00,VWS V14.01,2013-05-01 02:03:00,
2013-04-30 22:07:00,51.1,38.1,30.09,East,90,0.0,0.0,61,0.00,,---,0.00,VWS V14.01,2013-05-01 02:07:00,
2013-04-30 22:12:00,51.1,37.7,30.09,SSE,158,1.1,2.5,60,0.00,,---,0.00,VWS V14.01,2013-05-01 02:12:00,
2013-04-30 22:18:00,50.9,38.0,30.09,SSE,158,1.3,1.3,61,0.00,,---,0.00,VWS V14.01,2013-05-01 02:18:00,
2013-04-30 22:22:00,50.7,37.8,30.09,South,180,1.3,1.3,61,0.00,,---,0.00,VWS V14.01,2013-05-01 02:22:00,
2013-04-30 22:27:00,50.7,38.2,30.09,SSE,158,0.0,0.0,62,0.00,,---,0.00,VWS V14.01,2013-05-01 02:27:00,
2013-04-30 22:32:00,50.7,37.8,30.09,West,270,0.0,0.0,61,0.00,,---,0.00,VWS V14.01,2013-05-01 02:32:00,
2013-04-30 22:37:00,50.5,38.0,30.09,WNW,292,0.0,0.0,62,0.00,,---,0.00,VWS V14.01,2013-05-01 02:37:00,
2013-04-30 22:42:00,50.4,38.3,30.09,ENE,68,1.3,1.3,63,0.00,,---,0.00,VWS V14.01,2013-05-01 02:42:00,
2013-04-30 22:47:00,50.2,38.1,30.09,SE,135,0.0,0.0,63,0.00,,---,0.00,VWS V14.01,2013-05-01 02:47:00,
2013-04-30 22:52:00,50.2,38.1,30.09,SSW,202,0.0,0.0,63,0.00,,---,0.00,VWS V14.01,2013-05-01 02:52:00,
2013-04-30 22:57:00,50.0,38.3,30.09,WNW,292,0.0,0.0,64,0.00,,---,0.00,VWS V14.01,2013-05-01 02:57:00,
2013-04-30 23:02:00,50.0,37.9,30.09,WSW,248,0.0,2.7,63,0.00,,---,0.00,VWS V14.01,2013-05-01 03:02:00,
2013-04-30 23:07:00,49.8,38.2,30.09,SSW,202,0.0,0.0,64,0.00,,---,0.00,VWS V14.01,2013-05-01 03:07:00,
2013-04-30 23:12:00,49.6,38.4,30.09,SSW,202,3.6,3.6,65,0.00,,---,0.00,VWS V14.01,2013-05-01 03:12:00,
2013-04-30 23:17:00,49.6,38.0,30.09,SSW,202,1.6,1.6,64,0.00,,---,0.00,VWS V14.01,2013-05-01 03:17:00,
2013-04-30 23:22:00,49.5,38.2,30.09,ESE,112,0.0,0.0,65,0.00,,---,0.00,VWS V14.01,2013-05-01 03:22:00,
2013-04-30 23:27:00,49.5,38.2,30.09,SSW,202,1.3,1.3,65,0.00,,---,0.00,VWS V14.01,2013-05-01 03:27:00,
2013-04-30 23:32:00,49.5,38.2,30.09,SSE,158,0.0,0.0,65,0.00,,---,0.00,VWS V14.01,2013-05-01 03:32:00,
2013-04-30 23:37:00,49.3,38.0,30.09,SSE,158,0.0,0.0,65,0.00,,---,0.00,VWS V14.01,2013-05-01 03:37:00,
2013-04-30 23:42:00,49.1,38.2,30.09,ESE,112,0.0,0.0,66,0.00,,---,0.00,VWS V14.01,2013-05-01 03:42:00,
2013-04-30 23:47:00,48.9,38.1,30.09,SSE,158,0.0,0.0,66,0.00,,---,0.00,VWS V14.01,2013-05-01 03:47:00,
2013-04-30 23:52:00,48.9,38.5,30.09,ESE,112,1.6,1.6,67,0.00,,---,0.00,VWS V14.01,2013-05-01 03:52:00,
2013-04-30 23:57:00,48.9,38.1,30.09,SSW,202,0.0,0.0,66,0.00,,---,0.00,VWS V14.01,2013-05-01 03:57:00,